Location: Colossi of Memnon
(25.7167°N, 32.6167°E)
Time: 04:00:29
(UTC+00:00)

Iridium 51 - Pass Details

Date: 05 March 2021
Orbit: 456 x 741 km, 86.4° (Epoch: 19 April)

Event Time Altitude Azimuth Distance (km) Brightness Sun altitude
Rises 03:24:52 0° 352° (N) 2,634 7.7 -10.7°
Reaches altitude 10° 03:27:06 10° 346° (NNW) 1,705 6.7 -10.2°
Maximum altitude 03:30:39 47° 272° (W) 636 4.2 -9.4°
Drops below altitude 10° 03:34:00 10° 197° (SSW) 1,609 6.6 -8.7°
Sets 03:36:03 0° 191° (S) 2,466 7.6 -8.2°
